Starlink 1402

operational
NORAD ID: 45685 Int'l Des: 2020-035 Owner: SPXS Country: US Constellation: starlink
LEOCIRCULARSTARLINK_TYPE

Über Starlink 1402

Beschreibung wird geladen...

Live-Position

3D-Globus wird geladen...

Nächste Überflüge

Höhenverlauf

Altitude vs Time

uPlot chart will show altitude changes over time

Zweizeiliger Elementsatz

1 45685U 20035AE 26036.91670139 .00131063 00000-0 31812-2 0 9992
2 45685 53.0502 174.1161 0005296 167.7793 265.0251 15.40076310 5810
Epoch: 5. Feb. 2026 • Age: 4 hours

Aktueller Status

Höhe 461.8 km
Geschwindigkeit 7.64 km/s
Subsatellitenpunkt -48.38°S, 113.7°W
Startdatum 4. Juni 2020
Alter 5.6 years
Typ internet

Technische Details

Klassifizierung Payload
Masse 260.00 kg
Trockenmasse 248.00 kg
Gesamtmasse 260.00 kg
Länge 0.20 m
Durchmesser 2.80 m
Spannweite 9.00 m
Form Box + pan
Hersteller SPXS
Bus-Typ Starlink
Phasenstatus In Orbit
Besitzer/Staat SPXS/US

Große Konstellationen

Loading constellations...